| time (UTC) | temp F | wind direction | speed MPH | gust MPH | rain 1hr in | rain 24hr in | rain mn in | humidity % | barometer mb |
| 20260906173020 | 74 | 65 | 4.0 | 13.0 | 0.00 | 0.00 | 0.00 | 36 | 1023.7 |
| 20260906171515 | 75 | 66 | 7.0 | 15.0 | 0.00 | 0.00 | 0.00 | 35 | 1023.5 |
| 20260906170014 | 75 | 55 | 7.0 | 22.0 | 0.00 | 0.00 | 0.00 | 36 | 1023.4 |
| 20260906164528 | 76 | 50 | 6.0 | 18.0 | 0.00 | 0.00 | 0.00 | 36 | 1023.3 |
| 20260906163024 | 76 | 34 | 5.0 | 16.0 | 0.00 | 0.00 | 0.00 | 36 | 1023.3 |
| 20260906161513 | 77 | 60 | 9.0 | 20.0 | 0.00 | 0.00 | 0.00 | 36 | 1023.3 |
| 20260906160011 | 77 | 57 | 7.0 | 15.0 | 0.00 | 0.00 | 0.00 | 36 | 1023.2 |
| 20260906154514 | 78 | 27 | 4.0 | 20.0 | 0.00 | 0.00 | 0.00 | 36 | 1023.2 |
| 20260906153012 | 78 | 20 | 0.0 | 21.0 | 0.00 | 0.00 | 0.00 | 37 | 1023.2 |
| 20260906151509 | 78 | 21 | 2.0 | 19.0 | 0.00 | 0.00 | 0.00 | 38 | 1023.3 |
| 20260906150021 | 78 | 46 | 0.0 | 20.0 | 0.00 | 0.00 | 0.00 | 37 | 1023.3 |
| 20260906144510 | 78 | 31 | 7.0 | 19.0 | 0.00 | 0.00 | 0.00 | 38 | 1023.4 |
| 20260906143019 | 78 | 9 | 7.0 | 22.0 | 0.00 | 0.00 | 0.00 | 39 | 1023.5 |
| 20260906141507 | 78 | 42 | 8.0 | 31.0 | 0.00 | 0.00 | 0.00 | 38 | 1023.5 |
| 20260906140007 | 78 | 29 | 6.0 | 16.0 | 0.00 | 0.00 | 0.00 | 39 | 1023.6 |
| 20260906134505 | 78 | 346 | 0.0 | 27.0 | 0.00 | 0.00 | 0.00 | 40 | 1023.7 |
| 20260906133004 | 78 | 15 | 5.0 | 22.0 | 0.00 | 0.00 | 0.00 | 40 | 1023.8 |
| 20260906131509 | 77 | 53 | 0.0 | 23.0 | 0.00 | 0.00 | 0.00 | 41 | 1023.9 |
| 20260906124557 | 76 | 340 | 10.0 | 23.0 | 0.00 | 0.00 | 0.00 | 42 | 1023.9 |
| 20260906123054 | 76 | 35 | 17.0 | 31.0 | 0.00 | 0.00 | 0.00 | 42 | 1024.1 |
| 20260906121554 | 75 | 328 | 19.0 | 34.0 | 0.00 | 0.00 | 0.00 | 44 | 1024.2 |
| 20260906120056 | 75 | 7 | 10.0 | 28.0 | 0.00 | 0.00 | 0.00 | 44 | 1024.2 |
| 20260906114552 | 75 | 63 | 12.0 | 29.0 | 0.00 | 0.00 | 0.00 | 44 | 1024.3 |
| 20260906113058 | 74 | 354 | 15.0 | 24.0 | 0.00 | 0.00 | 0.00 | 45 | 1024.5 |
| 20260906111550 | 74 | 346 | 11.0 | 33.0 | 0.00 | 0.00 | 0.00 | 46 | 1024.6 |
| 20260906110046 | 74 | 13 | 14.0 | 28.0 | 0.00 | 0.00 | 0.00 | 47 | 1024.8 |
| 20260906104555 | 73 | 44 | 18.0 | 31.0 | 0.00 | 0.00 | 0.00 | 46 | 1024.9 |
| 20260906103042 | 72 | 30 | 16.0 | 32.0 | 0.00 | 0.00 | 0.00 | 48 | 1024.9 |
| 20260906101540 | 72 | 35 | 9.0 | 41.0 | 0.00 | 0.00 | 0.00 | 48 | 1025.0 |
| 20260906100043 | 72 | 349 | 13.0 | 24.0 | 0.00 | 0.00 | 0.00 | 48 | 1025.2 |
| 20260906094559 | 71 | 17 | 16.0 | 30.0 | 0.00 | 0.00 | 0.00 | 49 | 1025.1 |
| 20260906093037 | 71 | 40 | 10.0 | 26.0 | 0.00 | 0.00 | 0.00 | 50 | 1025.4 |
| 20260906091534 | 70 | 344 | 10.0 | 23.0 | 0.00 | 0.00 | 0.00 | 51 | 1025.5 |
| 20260906090027 | 70 | 359 | 16.0 | 39.0 | 0.00 | 0.00 | 0.00 | 51 | 1025.4 |
| 20260906084523 | 69 | 328 | 11.0 | 23.0 | 0.00 | 0.00 | 0.00 | 52 | 1025.6 |
| 20260906083017 | 69 | 3 | 16.0 | 27.0 | 0.00 | 0.00 | 0.00 | 53 | 1025.7 |
| 20260906081535 | 68 | 340 | 14.0 | 27.0 | 0.00 | 0.00 | 0.00 | 53 | 1025.7 |
| 20260906080010 | 68 | 10 | 13.0 | 27.0 | 0.00 | 0.00 | 0.00 | 54 | 1025.5 |
| 20260906074506 | 67 | 5 | 12.0 | 23.0 | 0.00 | 0.00 | 0.00 | 54 | 1025.5 |
| 20260906073003 | 67 | 27 | 10.0 | 21.0 | 0.00 | 0.00 | 0.00 | 56 | 1025.4 |
| 20260906071559 | 66 | 3 | 6.0 | 26.0 | 0.00 | 0.00 | 0.00 | 56 | 1025.3 |
| 20260906070055 | 66 | 359 | 4.0 | 20.0 | 0.00 | 0.00 | 0.00 | 58 | 1025.1 |
| 20260906064551 | 65 | 324 | 15.0 | 23.0 | 0.00 | 0.00 | 0.00 | 58 | 1025.0 |
| 20260906063047 | 65 | 350 | 10.0 | 25.0 | 0.00 | 0.00 | 0.00 | 58 | 1025.0 |
| 20260906061544 | 64 | 3 | 8.0 | 22.0 | 0.00 | 0.00 | 0.00 | 60 | 1024.9 |
| 20260906060042 | 64 | 356 | 2.0 | 17.0 | 0.00 | 0.00 | 0.00 | 61 | 1024.7 |
| 20260906054537 | 63 | 353 | 10.0 | 23.0 | 0.00 | 0.00 | 0.00 | 62 | 1024.5 |
| 20260906053034 | 62 | 356 | 0.0 | 13.0 | 0.00 | 0.00 | 0.00 | 63 | 1024.4 |
| 20260906051532 | 62 | 356 | 0.0 | 0.0 | 0.00 | 0.00 | 0.00 | 64 | 1024.4 |
| 20260906050029 | 62 | 356 | 0.0 | 0.0 | 0.00 | 0.00 | 0.00 | 63 | 1024.3 |
| 20260906044530 | 62 | 356 | 0.0 | 0.0 | 0.00 | 0.00 | 0.00 | 63 | 1024.2 |
| 20260906043023 | 62 | 356 | 0.0 | 0.0 | 0.00 | 0.00 | 0.00 | 63 | 1024.0 |
| 20260906041520 | 62 | 356 | 0.0 | 0.0 | 0.00 | 0.00 | 0.00 | 63 | 1023.9 |
| 20260906040022 | 62 | 356 | 0.0 | 0.0 | 0.00 | 0.00 | 0.00 | 62 | 1023.7 |
| 20260906034516 | 63 | 356 | 0.0 | 12.0 | 0.00 | 0.00 | 0.00 | 62 | 1023.6 |
| 20260906033015 | 63 | 356 | 1.0 | 13.0 | 0.00 | 0.00 | 0.00 | 61 | 1023.5 |
| 20260906031523 | 63 | 356 | 0.0 | 15.0 | 0.00 | 0.00 | 0.00 | 61 | 1023.4 |
| 20260906030012 | 64 | 356 | 1.0 | 13.0 | 0.00 | 0.00 | 0.00 | 60 | 1023.4 |
| 20260906024510 | 64 | 356 | 0.0 | 0.0 | 0.00 | 0.00 | 0.00 | 61 | 1023.3 |
| 20260906023015 | 63 | 356 | 0.0 | 0.0 | 0.00 | 0.00 | 0.00 | 63 | 1023.3 |
| 20260906021510 | 64 | 356 | 0.0 | 0.0 | 0.00 | 0.00 | 0.00 | 64 | 1023.3 |
| 20260906020006 | 64 | 356 | 0.0 | 0.0 | 0.00 | 0.00 | 0.00 | 65 | 1023.2 |
| 20260906014505 | 64 | 356 | 0.0 | 0.0 | 0.00 | 0.00 | 0.00 | 65 | 1023.1 |
| 20260906013003 | 64 | 356 | 0.0 | 10.0 | 0.00 | 0.00 | 0.00 | 66 | 1023.0 |
| 20260906011603 | 65 | 356 | 5.0 | 12.0 | 0.00 | 0.00 | 0.00 | 66 | 1023.0 |
| 20260906010106 | 65 | 356 | 5.0 | 15.0 | 0.00 | 0.00 | 0.00 | 66 | 1022.8 |
| 20260906004557 | 66 | 356 | 5.0 | 13.0 | 0.00 | 0.00 | 0.00 | 66 | 1022.7 |
| 20260906003053 | 66 | 353 | 9.0 | 16.0 | 0.00 | 0.00 | 0.00 | 65 | 1022.4 |
| 20260906001604 | 67 | 351 | 0.0 | 15.0 | 0.00 | 0.00 | 0.00 | 67 | 1022.5 |
| 20260906000048 | 67 | 349 | 9.0 | 17.0 | 0.00 | 0.00 | 0.00 | 66 | 1022.4 |
| 20260905234545 | 67 | 344 | 7.0 | 13.0 | 0.00 | 0.00 | 0.00 | 66 | 1022.2 |
| 20260905233043 | 68 | 350 | 10.0 | 17.0 | 0.00 | 0.00 | 0.00 | 64 | 1022.0 |
| 20260905231541 | 68 | 353 | 9.0 | 17.0 | 0.00 | 0.00 | 0.00 | 65 | 1021.9 |
| 20260905230037 | 69 | 360 | 0.0 | 21.0 | 0.00 | 0.00 | 0.00 | 64 | 1021.7 |
| 20260905224533 | 69 | 353 | 11.0 | 19.0 | 0.00 | 0.00 | 0.00 | 64 | 1021.6 |
| 20260905223037 | 69 | 348 | 4.0 | 21.0 | 0.00 | 0.00 | 0.00 | 63 | 1021.5 |
| 20260905221539 | 69 | 331 | 15.0 | 24.0 | 0.00 | 0.00 | 0.00 | 63 | 1021.2 |
| 20260905220028 | 70 | 342 | 9.0 | 21.0 | 0.00 | 0.00 | 0.00 | 62 | 1021.1 |
| 20260905214523 | 70 | 342 | 11.0 | 24.0 | 0.00 | 0.00 | 0.00 | 62 | 1021.0 |
| 20260905213022 | 70 | 334 | 14.0 | 27.0 | 0.00 | 0.00 | 0.00 | 61 | 1020.8 |
| 20260905211536 | 70 | 333 | 17.0 | 32.0 | 0.00 | 0.00 | 0.00 | 60 | 1020.7 |
| 20260905210019 | 70 | 327 | 12.0 | 25.0 | 0.00 | 0.00 | 0.00 | 60 | 1020.6 |
| 20260905204518 | 71 | 329 | 13.0 | 22.0 | 0.00 | 0.00 | 0.00 | 59 | 1020.6 |
| 20260905203017 | 71 | 342 | 14.0 | 37.0 | 0.00 | 0.00 | 0.00 | 59 | 1020.5 |
| 20260905201516 | 71 | 333 | 8.0 | 32.0 | 0.00 | 0.00 | 0.00 | 60 | 1020.5 |
| 20260905200019 | 71 | 326 | 17.0 | 29.0 | 0.00 | 0.00 | 0.00 | 60 | 1020.3 |
| 20260905194513 | 71 | 315 | 9.0 | 32.0 | 0.00 | 0.00 | 0.00 | 61 | 1020.2 |
| 20260905193012 | 71 | 300 | 17.0 | 35.0 | 0.00 | 0.00 | 0.00 | 61 | 1020.1 |
| 20260905191511 | 71 | 316 | 10.0 | 32.0 | 0.00 | 0.00 | 0.00 | 61 | 1020.1 |
| 20260905190010 | 71 | 323 | 6.0 | 21.0 | 0.00 | 0.00 | 0.00 | 61 | 1019.9 |
| 20260905184508 | 72 | 327 | 14.0 | 25.0 | 0.00 | 0.00 | 0.00 | 59 | 1019.7 |
| 20260905183006 | 72 | 328 | 12.0 | 24.0 | 0.00 | 0.00 | 0.00 | 58 | 1019.5 |
| 20260905181506 | 72 | 324 | 15.0 | 40.0 | 0.00 | 0.00 | 0.00 | 57 | 1019.2 |
| 20260905180005 | 73 | 325 | 13.0 | 34.0 | 0.00 | 0.00 | 0.00 | 57 | 1019.1 |
| 20260905174503 | 73 | 315 | 10.0 | 35.0 | 0.00 | 0.00 | 0.00 | 56 | 1018.9 |